Zurück zum Katalog

IRIDIUM 33 DEB

AktivPO
NORAD 34159·DEBRIS·🇺🇸 United States

Gestartet Sep 14, 1997 von Baikonur Cosmodrome

Loading…

Nächste Überflüge (nächste 24 Stunden)

TLE

AktuellSource: Space-Track

Epoche: Sep 14, 2026, 13:08 UTC

1 34159U 97051EN  26257.54785895  .00000628  00000-0  19579-3 0  9997
2 34159  86.3470 290.6101 0030078 101.2556 259.2025 14.39078441919251

Verfolge IRIDIUM 33 DEB in Echtzeit mit AllMySat

Download on the App Store